This demonstration page uses our WeatherBlox Daily Observations layout. Learn more.

Left ArrowRight Arrow

39.51506, -84.39828

Hourly Observations for May 11, 2020

Temp ( °F °C ) Dew Point ( °F °C ) Humidity (%) Winds ( mph kmh ) Pressure ( in mb ) Visibility ( mi km ) Precip ( " mm )
12:15 am 00:15 Cloudy 45 7 36 2 71 71 W 20 31 30.07 1018 N/A 0 0
12:35 am 00:35 Cloudy 44 6.5 37 2.9 78 78 WNW 16 26 30.08 1019 N/A 0 0
12:55 am 00:55 Cloudy 42 5.4 35 1.8 78 78 NW 20 31 30.09 1019 N/A 0 0
1:15 am 01:15 Cloudy 41 5.2 34 0.9 74 74 NW 15 24 30.1 1019 N/A 0 0
1:35 am 01:35 Cloudy 40 4.6 32 0 72 72 NW 17 28 30.11 1020 N/A 0 0
1:55 am 01:55 Cloudy 40 4.6 33 0.3 74 74 WNW 13 20 30.12 1020 N/A 0 0
2:15 am 02:15 Cloudy 40 4.6 32 0.2 73 73 NW 15 24 30.12 1020 N/A 0 0
2:35 am 02:35 Cloudy 40 4.4 32 -0.1 73 73 NW 16 26 30.12 1020 N/A 0 0
2:55 am 02:55 Cloudy 40 4.2 32 -0.1 74 74 NW 15 24 30.13 1020 N/A 0 0
3:15 am 03:15 Cloudy 39 4.1 32 -0.2 74 74 NW 16 26 30.13 1020 N/A 0 0
3:35 am 03:35 Cloudy 39 4.1 32 -0.2 74 74 NW 15 24 30.14 1021 N/A 0 0
3:55 am 03:55 Cloudy 39 3.9 32 -0.2 75 75 NW 15 24 30.14 1021 N/A 0 0
4:15 am 04:15 Cloudy 39 4 31 -0.4 73 73 NW 9 15 30.15 1021 N/A 0 0
4:35 am 04:35 Cloudy 39 3.9 31 -0.3 74 74 NW 14 22 30.15 1021 N/A 0 0
4:55 am 04:55 Cloudy 39 3.8 31 -0.6 73 73 NW 13 20 30.17 1022 N/A 0 0
5:15 am 05:15 Cloudy 39 3.8 31 -0.5 74 74 WNW 10 17 30.18 1022 N/A 0 0
5:35 am 05:35 Cloudy 38 3.6 31 -0.6 74 74 WNW 13 20 30.18 1022 N/A 0 0
5:55 am 05:55 Partly Cloudy 37 2.9 31 -0.4 79 79 W 7 11 30.19 1022 N/A 0 0
6:15 am 06:15 Cloudy 37 2.9 32 0 81 81 WNW 7 11 30.19 1022 N/A 0 0
6:35 am 06:35 Cloudy 38 3.3 32 0 79 79 WNW 8 13 30.19 1022 N/A 0 0
6:55 am 06:55 Cloudy 39 3.7 32 0.2 78 78 WNW 7 11 30.2 1023 N/A 0 0
7:15 am 07:15 Cloudy 39 3.9 32 0.1 77 77 W 7 11 30.2 1023 N/A 0 0
7:35 am 07:35 Cloudy 40 4.2 33 0.4 77 77 W 8 13 30.2 1023 N/A 0 0
7:55 am 07:55 Cloudy 40 4.4 33 0.3 75 75 WNW 8 13 30.21 1023 N/A 0 0
8:15 am 08:15 Cloudy 40 4.6 33 0.4 74 74 W 7 11 30.21 1023 N/A 0 0
8:35 am 08:35 Cloudy 41 4.9 33 0.6 74 74 NW 12 19 30.21 1023 N/A 0 0
8:55 am 08:55 Cloudy 41 5.1 33 0.3 71 71 WNW 9 15 30.21 1023 N/A 0 0
9:15 am 09:15 Cloudy 42 5.5 33 0.6 71 71 W 10 17 30.22 1023 N/A 0 0
9:35 am 09:35 Cloudy 42 5.6 33 0.6 71 71 W 9 15 30.22 1023 N/A 0 0
9:55 am 09:55 Cloudy 42 5.7 34 0.9 72 72 WNW 12 19 30.22 1023 N/A 0 0
10:15 am 10:15 Cloudy 42 5.5 33 0.8 72 72 NW 5 7 30.23 1024 N/A 0 0
10:35 am 10:35 Cloudy 42 5.7 34 0.9 72 72 WNW 8 13 30.23 1024 N/A 0 0
10:55 am 10:55 Cloudy 43 6.2 35 1.4 72 72 W 9 15 30.23 1024 N/A 0 0
11:15 am 11:15 Cloudy 42 5.8 34 1.3 73 73 W 9 15 30.23 1024 N/A 0 0
11:35 am 11:35 Cloudy 43 6.3 36 2.2 75 75 W 9 15 30.23 1024 N/A 0 0
11:55 am 11:55 Cloudy 43 6.3 34 1.2 70 70 W 8 13 30.23 1024 N/A 0 0
12:15 pm 12:15 Cloudy 44 6.6 35 1.4 70 70 NW 13 20 30.24 1024 N/A 0 0
12:35 pm 12:35 Cloudy 46 7.8 34 1.2 63 63 WNW 9 15 30.22 1024 N/A 0 0
12:55 pm 12:55 Cloudy 46 7.9 33 0.5 60 60 WNW 14 22 30.22 1024 N/A 0 0
1:15 pm 13:15 Cloudy 47 8.2 32 -0.1 56 56 WNW 12 19 30.22 1023 N/A 0 0
1:35 pm 13:35 Cloudy 48 8.8 32 0.1 55 55 NW 13 20 30.21 1023 N/A 0 0
1:55 pm 13:55 Cloudy 47 8.2 32 0.2 57 57 WNW 12 19 30.22 1023 N/A 0 0
2:15 pm 14:15 Cloudy 46 7.8 32 0 58 58 W 13 20 30.22 1024 N/A 0 0
2:35 pm 14:35 Cloudy 47 8.1 33 0.6 59 59 WNW 13 20 30.22 1023 N/A 0 0
2:55 pm 14:55 Cloudy 47 8.3 33 0.5 58 58 WNW 12 19 30.22 1023 N/A 0 0
3:15 pm 15:15 Cloudy 47 8.5 34 1.3 61 61 WNW 14 22 30.22 1023 N/A 0 0
3:35 pm 15:35 Cloudy 47 8.2 33 0.7 60 60 NW 14 22 30.22 1023 N/A 0 0
3:55 pm 15:55 Cloudy 47 8.6 34 0.9 59 59 WNW 16 26 30.22 1023 N/A 0 0
4:15 pm 16:15 Cloudy 47 8.4 33 0.8 59 59 NW 13 20 30.22 1023 N/A 0 0
4:35 pm 16:35 Cloudy 47 8.5 34 0.9 59 59 WNW 9 15 30.21 1023 N/A 0 0
4:55 pm 16:55 Cloudy 48 8.7 33 0.7 58 58 WNW 10 17 30.21 1023 N/A 0 0
5:15 pm 17:15 Cloudy 47 8.4 33 0.6 58 58 WNW 12 19 30.21 1023 N/A 0 0
5:35 pm 17:35 Cloudy 47 8.2 33 0.6 59 59 WNW 10 17 30.22 1023 N/A 0 0
5:55 pm 17:55 Cloudy 47 8.1 34 0.9 61 61 NW 7 11 30.22 1023 N/A 0 0
6:15 pm 18:15 Cloudy 47 8.2 34 1.1 61 61 NW 8 13 30.23 1024 N/A 0 0
6:35 pm 18:35 Cloudy 47 8.1 34 0.9 61 61 WNW 10 17 30.23 1024 N/A 0 0
6:55 pm 18:55 Cloudy 46 8 34 1.2 63 63 NW 9 15 30.23 1024 N/A 0 0
7:15 pm 19:15 Cloudy 46 7.9 35 1.4 64 64 NW 8 13 30.23 1024 N/A 0 0
7:35 pm 19:35 Cloudy 46 7.7 36 2 68 68 WNW 6 9 30.23 1024 N/A 0 0
7:55 pm 19:55 Cloudy 46 7.6 35 1.7 67 67 NW 6 9 30.23 1024 N/A 0 0
8:15 pm 20:15 Cloudy 46 7.5 35 1.9 68 68 WNW 3 6 30.23 1024 N/A 0 0
8:35 pm 20:35 Cloudy 45 7.4 36 2 69 69 W 5 7 30.23 1024 N/A 0 0
8:55 pm 20:55 Cloudy 45 7.2 36 2.3 71 71 W 3 6 30.23 1024 N/A 0 0
9:15 pm 21:15 Cloudy 44 6.8 37 2.8 76 76 WSW 6 9 30.24 1024 N/A 0 0
9:35 pm 21:35 Cloudy 44 6.8 37 2.6 75 75 WSW 6 9 30.24 1024 N/A 0 0
9:55 pm 21:55 Cloudy 44 6.6 37 2.8 77 77 WSW 6 9 30.24 1024 N/A 0 0
10:15 pm 22:15 Cloudy 44 6.5 37 2.9 78 78 W 5 7 30.25 1024 N/A 0 0
10:35 pm 22:35 Cloudy 44 6.5 37 2.7 77 77 WSW 6 9 30.25 1024 N/A 0 0
10:55 pm 22:55 Cloudy 44 6.5 37 2.5 76 76 W 5 7 30.24 1024 N/A 0 0
11:15 pm 23:15 Cloudy 44 6.5 37 2.7 77 77 W 5 7 30.25 1024 N/A 0 0
11:35 pm 23:35 Cloudy 44 6.5 37 2.5 76 76 WNW 5 7 30.25 1024 N/A 0 0
11:55 pm 23:55 Cloudy 44 6.5 36 2.4 75 75 WNW 5 7 30.25 1024 N/A 0 0

Powered by AerisWeather